Theta_e
327 328 329 326 323 324 320 317 302 306 308 299 299 301 298 304 305 304 303 305 303 306 307 306 306 304 304 304 305 306 307 305 305 301 301 315 327 330 334 341 336 338 344 345 349 351 353 350 352 354 355 355 354 354 353 353 352 352 352 351 351 350 350 349 349 348 348 347 348 348 347 347 348 348 348 347 348 348 348 348 348 349 348 348 347 347 346 346 345 346 344 343 341 339 338 336 335
325 328 326 327 322 321 315 310 305 301 302 298 298 301 301 303 303 302 302 304 305 306 306 307 307 306 305 306 306 306 307 308 309 309 312 316 323 326 329 338 338 338 343 345 349 350 352 355 349 353 355 354 354 353 353 352 352 352 351 351 350 350 350 349 348 348 347 347 347 347 347 348 347 348 347 347 347 347 347 347 348 347 348 347 347 347 346 345 345 344 343 341 339 337 336 335 334
324 323 324 322 321 319 315 310 300 300 297 294 297 300 303 302 302 303 304 305 306 305 305 306 305 305 307 306 305 305 304 309 309 310 311 321 319 325 331 334 339 342 342 345 348 349 350 351 347 353 355 354 354 353 353 352 353 352 351 351 350 350 350 349 349 348 347 347 347 347 347 347 347 347 347 346 346 346 346 347 347 347 347 347 346 346 346 346 344 343 341 338 336 334 332 332 333
327 324 319 319 314 316 308 306 303 299 297 297 296 301 302 302 302 304 305 305 306 305 306 307 306 308 307 304 306 307 308 308 310 311 314 320 322 329 330 332 339 340 342 346 349 349 351 349 346 353 354 354 354 353 353 353 352 352 351 351 350 350 350 349 349 348 347 346 347 347 347 347 347 347 347 346 346 346 346 346 347 347 347 347 346 346 345 345 344 342 340 336 334 332 330 330 332
328 323 322 320 318 308 309 304 301 301 295 297 295 301 302 303 303 304 305 305 305 305 306 306 307 308 307 306 308 306 306 311 311 311 313 325 330 331 333 336 340 341 341 345 348 348 350 345 346 349 354 355 354 354 353 352 352 352 351 351 350 350 349 348 348 348 347 346 345 346 347 347 347 347 346 347 346 345 345 345 347 346 345 345 345 344 344 344 343 341 339 337 335 332 329 329 331
325 323 323 321 311 312 308 301 299 298 300 301 298 300 302 303 302 303 304 306 305 305 305 306 305 305 305 307 309 308 310 307 310 315 316 327 330 331 336 340 339 340 341 345 348 348 350 342 346 348 354 354 354 354 353 353 352 351 351 350 350 350 349 348 347 348 347 345 345 346 346 346 347 347 347 346 346 345 346 346 347 346 345 344 344 343 342 343 342 341 339 338 335 332 329 329 330
319 319 318 316 312 313 304 300 298 299 300 300 301 302 303 303 303 302 305 306 305 306 304 306 305 305 304 306 307 309 310 310 313 317 323 328 331 334 338 339 341 340 342 345 348 348 350 341 346 350 352 352 353 353 352 352 352 351 351 350 350 349 349 348 347 348 348 346 346 346 347 346 346 346 347 346 346 346 346 346 347 346 345 344 342 342 342 342 341 340 338 337 335 331 329 328 330
319 317 314 309 306 309 302 301 299 302 299 301 302 302 303 303 302 303 304 304 303 303 305 305 305 304 303 305 304 310 312 313 313 329 331 330 332 333 337 338 341 339 341 345 348 347 345 339 345 348 350 353 352 352 352 351 350 351 350 350 349 349 349 347 346 347 347 347 345 346 347 346 346 347 346 345 346 345 346 346 346 345 344 343 342 342 343 341 340 339 339 337 333 330 328 327 329
318 315 312 313 303 305 301 300 300 301 302 302 303 304 306 304 304 303 303 303 304 304 304 306 306 302 303 305 306 311 313 318 320 327 328 331 330 332 335 335 337 339 341 342 344 346 349 339 342 346 347 351 352 351 351 351 349 349 350 350 349 349 348 347 346 346 347 347 347 346 347 346 347 347 346 345 345 345 345 345 346 344 343 342 342 342 342 342 342 340 338 334 331 328 326 326 328
315 314 307 308 307 300 300 299 299 300 301 303 302 303 303 303 303 302 303 303 303 303 303 303 304 303 305 303 306 310 312 313 320 322 325 329 332 333 332 332 334 337 339 341 342 343 346 340 338 341 344 347 351 351 351 351 350 350 349 350 349 349 348 348 347 345 347 347 347 347 346 346 346 346 345 345 345 345 345 345 345 344 343 342 342 341 340 340 341 340 337 334 330 327 325 325 327
308 311 310 306 301 298 298 298 300 301 301 302 303 303 303 303 302 303 302 303 302 302 303 304 305 304 305 304 307 312 311 312 315 319 325 329 333 333 333 333 335 336 336 339 341 343 344 347 336 337 341 342 346 350 349 350 350 350 350 349 349 349 349 349 346 347 347 346 346 346 346 346 346 347 345 345 345 344 344 344 343 343 343 342 341 339 338 338 340 338 335 332 329 326 324 325 326
304 307 309 302 299 300 299 299 299 301 301 302 301 303 304 302 302 302 303 302 302 303 303 304 303 305 303 304 307 310 311 310 315 321 327 330 330 330 335 335 336 336 337 338 340 340 343 345 347 339 335 337 342 344 346 347 347 349 349 349 349 348 349 349 349 348 347 347 346 346 345 346 346 346 346 342 344 343 343 343 342 342 342 341 339 339 338 340 339 337 334 331 329 326 324 324 325
309 308 303 301 300 300 299 299 299 300 301 301 302 302 301 301 302 303 303 303 302 303 304 305 305 304 302 303 308 309 307 308 314 321 326 329 330 330 331 331 334 335 336 337 338 339 341 342 345 347 344 331 335 337 341 342 343 346 348 349 348 349 348 349 348 348 348 347 346 346 346 345 345 346 345 344 343 342 342 342 342 341 341 341 339 338 338 340 338 335 332 331 328 326 323 324 324
309 309 305 299 298 299 299 300 300 299 299 302 303 302 301 302 303 303 304 303 303 303 305 305 305 306 303 305 305 307 306 308 310 318 325 326 329 328 329 330 331 332 334 337 338 339 340 340 342 344 346 347 349 341 335 338 341 344 345 345 345 345 346 347 347 347 347 346 345 344 342 342 343 344 345 343 342 342 341 341 341 340 340 339 337 339 339 338 336 334 332 330 328 325 323 323 323
309 307 305 302 299 299 299 298 299 299 299 303 302 301 302 303 302 302 303 302 303 304 305 304 305 303 301 302 304 304 304 306 309 315 322 322 323 321 322 325 325 326 329 332 334 335 337 339 340 342 344 346 348 347 348 348 334 339 340 341 341 343 344 343 344 343 342 343 342 338 336 336 336 337 337 340 339 339 338 335 339 340 339 337 337 338 338 337 335 333 332 330 327 325 324 322 321
311 308 305 299 297 298 299 299 297 301 299 303 301 299 301 302 302 303 303 303 305 306 305 304 305 303 304 303 301 302 304 306 308 313 316 316 320 318 317 316 319 318 321 320 323 326 331 335 338 340 341 343 345 347 347 348 338 332 337 338 337 340 340 341 340 338 336 336 334 332 329 335 333 341 328 339 334 338 335 337 336 339 340 336 337 338 337 336 335 333 332 329 327 325 323 322 320
308 310 299 299 296 298 300 300 300 298 301 303 302 303 302 303 302 302 302 303 303 305 305 304 303 304 301 301 302 303 305 307 309 312 313 312 313 313 314 314 315 315 316 316 316 316 321 328 334 337 339 341 343 345 346 347 347 331 333 332 333 334 336 337 337 331 328 327 330 324 325 347 346 347 347 345 330 345 329 329 333 338 339 338 340 338 337 336 335 333 331 329 326 321 318 315 316
309 302 299 297 299 299 302 302 302 302 302 302 301 302 303 302 305 304 303 303 303 305 304 301 304 303 303 303 304 304 305 306 307 308 309 310 310 310 310 311 311 311 313 314 315 315 316 318 324 333 338 339 341 344 345 345 347 339 348 348 348 342 333 331 342 348 338 347 325 337 344 344 344 344 345 339 344 344 336 325 330 335 338 335 337 338 336 336 335 333 332 329 324 320 316 323 315
305 300 300 297 299 300 304 304 303 302 302 302 302 300 301 303 303 304 303 302 303 303 303 303 300 303 305 304 304 304 305 305 306 306 306 306 307 306 308 310 310 311 311 313 314 314 315 316 317 322 333 338 339 342 344 344 345 346 347 346 348 337 343 344 344 346 348 346 345 344 342 345 345 344 344 341 341 328 338 324 329 332 333 332 336 337 336 336 335 334 332 327 322 317 324 321 315
304 304 299 299 302 301 301 303 303 303 303 302 302 300 300 303 302 304 302 302 302 302 302 303 303 302 302 302 302 303 304 304 304 305 304 305 305 306 306 307 308 310 310 311 313 315 315 316 316 317 325 335 338 340 342 343 343 345 346 347 346 346 347 347 347 347 347 346 345 344 344 345 345 345 328 325 332 341 338 324 324 327 328 328 330 334 333 335 334 333 330 324 322 323 326 321 315
304 303 300 301 300 300 302 302 303 302 301 302 302 300 300 302 302 302 302 301 302 301 299 299 300 300 301 301 301 302 302 302 303 303 303 304 305 306 305 305 306 307 310 311 314 313 315 316 317 318 320 329 336 337 339 341 343 344 343 343 343 344 345 345 344 346 345 345 346 344 345 345 345 343 343 341 341 340 340 340 339 339 338 336 327 337 337 337 334 335 330 326 330 328 325 322 319
305 302 302 302 300 302 303 303 301 301 300 301 300 300 302 301 301 302 302 299 301 300 299 300 300 299 299 299 300 301 301 301 301 302 302 302 303 304 305 306 307 309 310 311 310 312 315 317 318 319 318 325 334 336 337 340 341 342 342 343 342 341 343 344 344 343 345 344 344 344 344 344 344 343 343 341 339 340 339 339 339 339 338 337 333 335 335 336 336 334 333 331 328 327 324 321 318
302 301 301 302 303 302 303 302 300 300 301 301 301 302 301 300 301 301 302 300 299 298 299 299 298 299 298 299 300 300 300 300 300 300 301 301 302 303 304 305 305 307 308 310 312 313 315 316 318 319 318 325 333 336 336 338 340 342 343 344 342 340 341 340 342 343 341 343 342 344 341 341 341 340 340 339 338 339 338 337 337 337 336 334 334 336 333 334 334 333 331 331 328 325 321 318 315
302 301 301 301 301 302 302 303 299 300 301 300 302 300 300 300 299 299 299 297 298 298 298 298 298 299 299 299 299 299 299 299 299 300 300 301 301 302 303 303 305 306 308 308 311 313 313 314 319 319 318 326 333 336 336 337 339 341 342 340 341 340 340 342 341 341 341 340 340 340 338 340 340 339 340 339 339 338 336 337 337 336 336 334 333 333 333 333 333 332 332 330 326 325 322 319 316
301 300 301 300 299 302 302 302 300 300 300 301 298 299 300 301 300 299 296 298 297 297 298 298 298 299 299 298 298 298 298 299 299 300 301 302 302 303 305 305 305 306 305 306 308 311 312 314 321 320 320 326 332 335 335 337 339 339 340 341 338 336 339 340 339 338 337 338 339 338 338 338 339 338 338 340 340 336 336 335 335 334 335 335 334 331 330 330 330 331 329 328 328 326 323 322 320
300 300 301 300 300 301 301 299 299 299 300 298 298 299 299 299 299 296 296 297 298 298 297 297 298 298 297 297 297 297 297 298 299 299 300 302 302 302 303 304 304 304 304 306 306 309 311 313 321 322 323 327 332 333 335 337 338 339 338 334 331 333 332 330 331 330 330 329 330 332 334 336 337 337 337 338 337 338 336 334 334 334 334 333 330 329 327 329 330 329 329 328 327 326 324 323 321
300 300 300 300 301 299 300 299 300 298 299 298 299 299 298 297 296 296 296 298 298 297 297 297 297 296 296 296 297 297 297 297 297 299 300 301 301 301 302 302 302 302 305 305 306 308 310 314 320 322 326 330 332 332 335 329 325 326 326 326 325 324 324 323 324 324 323 322 323 325 325 328 332 334 334 333 334 331 331 332 332 333 332 329 328 327 326 327 327 328 328 327 326 325 324 321 321
299 298 300 300 300 300 299 298 298 298 298 297 299 298 297 297 297 297 296 297 298 297 296 296 296 296 296 295 296 297 297 297 298 299 297 298 299 299 300 299 299 301 303 303 304 307 310 316 320 322 324 326 325 323 321 321 320 319 319 319 319 318 318 318 318 318 318 318 319 320 321 323 326 326 326 327 327 326 325 324 323 323 322 323 323 323 321 320 321 320 321 321 321 322 321 319 318
299 299 299 301 301 301 299 299 298 297 298 296 300 298 296 297 296 295 296 297 298 297 296 295 295 295 295 296 296 296 296 297 298 297 297 297 298 299 298 299 299 299 302 302 304 307 309 314 318 320 321 320 320 319 318 317 317 316 315 316 315 315 316 315 315 315 315 316 317 318 319 320 321 322 323 323 323 323 322 321 320 320 321 322 320 319 319 319 318 318 316 316 317 318 320 319 317
297 299 298 299 301 301 298 299 298 298 298 296 298 295 299 296 295 296 297 297 297 297 296 295 295 295 295 295 296 296 296 297 296 296 296 297 297 298 298 298 299 299 300 302 305 306 307 314 317 317 316 315 314 315 314 312 312 312 312 311 311 311 310 310 310 311 312 313 315 316 317 318 318 319 320 320 321 320 319 318 318 318 319 319 318 318 316 316 315 314 313 317 314 316 317 316 317
299 297 297 297 297 298 298 298 298 299 297 296 298 296 298 296 295 297 297 295 295 297 296 295 294 294 294 295 295 296 295 296 295 295 296 296 297 298 297 298 298 298 299 300 302 303 307 312 314 313 312 312 310 309 308 307 307 307 307 307 308 308 307 307 307 308 309 309 311 312 314 315 316 316 317 317 317 317 316 315 315 316 318 318 318 318 317 316 316 314 314 314 314 314 313 313 311
298 297 296 296 296 299 299 298 297 299 297 298 299 296 299 297 296 296 296 296 296 297 296 295 294 294 293 294 294 295 295 296 296 295 295 296 296 296 296 296 297 297 297 298 301 303 305 307 310 309 308 307 306 305 305 305 303 303 303 303 303 304 303 303 302 303 303 304 305 307 308 310 312 312 315 316 314 314 314 313 314 316 316 316 315 315 316 315 316 314 312 313 314 313 312 311 309
296 296 297 296 295 297 297 297 297 297 296 299 298 297 296 297 296 296 295 295 296 297 295 294 293 293 293 294 294 295 296 296 296 295 294 295 296 296 296 296 296 296 297 298 299 302 303 305 307 308 306 306 304 303 304 303 302 302 301 301 301 302 301 301 300 300 301 301 301 302 302 304 307 308 309 310 311 311 311 311 312 312 313 313 312 312 312 312 313 312 309 308 310 310 308 307 307
296 296 295 298 294 296 295 297 297 299 297 297 298 296 297 297 296 296 295 295 296 296 294 293 293 293 293 294 293 294 295 295 294 293 293 294 295 295 296 297 296 296 297 298 299 301 303 304 304 306 306 305 304 302 302 302 301 300 300 299 299 298 298 299 299 299 299 299 300 300 301 301 303 305 307 307 307 308 309 309 308 309 309 309 309 309 308 308 309 310 308 307 307 307 304 303 303
297 295 294 295 294 294 295 295 297 297 298 297 298 297 298 297 296 295 294 294 295 295 294 293 293 293 293 293 293 293 294 293 292 293 293 294 294 295 295 296 297 297 297 297 299 301 303 302 302 302 303 303 303 303 302 301 301 300 298 298 298 297 296 296 297 297 297 297 298 300 301 301 301 304 305 305 304 305 306 306 305 306 307 307 307 305 304 305 306 306 307 306 304 303 303 302 300
297 297 296 296 295 296 294 297 297 296 297 297 297 296 299 297 296 295 294 294 294 293 293 292 292 292 292 292 293 293 293 292 292 293 293 294 294 294 295 296 296 296 296 297 299 300 301 301 302 302 303 303 303 303 303 301 300 300 298 297 295 295 295 294 295 295 296 295 296 297 299 300 300 301 303 304 304 304 304 305 305 306 305 305 304 304 303 303 304 306 306 307 307 306 303 303 304
296 297 295 295 295 296 295 295 296 295 296 296 298 299 298 300 298 296 294 293 293 293 292 292 292 292 292 292 292 292 292 291 293 293 293 293 294 294 295 296 296 296 295 296 298 298 298 299 300 299 301 302 303 302 302 301 299 297 296 295 293 293 293 294 293 294 294 294 295 295 296 296 298 298 300 301 302 301 302 302 303 303 304 303 302 302 303 304 304 306 306 305 305 304 302 303 303
296 296 295 295 296 294 297 296 295 296 295 296 295 295 297 299 297 294 293 293 293 293 293 292 292 292 292 292 291 292 291 293 292 293 292 293 293 294 294 295 295 295 295 296 296 297 298 299 299 299 299 299 299 300 299 297 296 295 294 293 292 292 292 292 291 292 292 293 294 294 294 295 295 295 296 297 298 299 299 299 300 300 301 301 301 301 301 301 302 303 304 305 305 303 301 302 302
295 295 295 293 295 296 296 294 294 295 294 295 295 294 296 299 296 293 293 293 294 293 293 293 292 291 291 291 291 291 291 291 292 291 292 292 293 293 294 294 294 294 294 295 296 297 297 298 298 299 299 298 298 298 297 295 295 295 293 292 291 290 292 292 292 292 292 292 292 293 293 293 294 294 294 294 295 295 295 296 296 297 298 299 298 298 299 299 300 300 301 301 302 302 301 301 301
295 294 292 292 296 293 294 294 293 293 294 295 294 293 296 299 295 293 292 292 291 291 290 291 291 291 291 291 291 291 291 291 291 291 291 291 292 292 293 292 293 293 294 294 295 295 296 297 297 297 297 296 295 294 293 293 293 293 293 292 292 292 291 292 292 292 292 292 291 292 292 293 293 293 293 293 293 294 294 293 294 294 294 295 295 294 295 295 296 298 298 299 301 299 299 299 301
295 295 294 294 294 294 295 295 293 293 293 291 293 294 295 298 297 293 290 290 289 289 289 289 290 291 291 291 290 291 291 291 291 291 291 291 291 291 291 291 292 292 292 293 293 293 294 295 296 296 296 295 295 294 293 293 292 292 292 293 293 292 293 292 291 290 290 290 290 290 290 292 292 292 292 292 292 293 293 293 293 293 293 293 294 293 292 293 294 295 296 296 297 297 295 297 298
294 295 295 296 296 295 294 293 293 293 293 294 294 290 292 295 294 296 291 289 288 289 289 289 290 290 290 290 291 290 290 290 291 290 290 290 290 290 291 291 291 291 291 291 292 293 294 294 295 295 295 295 294 295 295 295 294 293 293 292 290 290 289 289 288 288 288 288 288 290 290 291 291 291 291 291 292 291 292 292 293 292 292 292 293 292 292 292 292 293 293 294 294 296 293 292 292
293 295 297 296 295 295 295 293 292 290 289 292 291 289 289 296 295 295 291 290 289 288 289 290 290 290 290 290 291 290 290 289 290 290 290 290 290 290 290 290 290 290 289 290 291 291 292 293 293 293 293 293 293 293 293 293 293 293 292 292 291 289 288 288 289 289 289 289 290 289 289 290 290 290 290 290 291 291 291 291 291 291 291 291 291 291 291 291 292 292 293 292 292 293 293 290 290
293 294 293 296 294 293 293 293 293 293 293 293 289 292 288 288 295 293 291 290 290 289 289 289 290 290 290 291 291 291 290 290 290 290 289 289 289 290 289 289 289 288 289 290 290 290 291 291 291 291 291 291 292 292 292 293 292 292 291 291 290 289 288 288 289 289 290 290 289 289 289 289 289 290 289 290 290 290 290 290 291 290 290 290 289 289 289 290 291 291 291 292 292 291 292 290 289
295 291 294 294 295 295 295 294 292 292 290 289 290 293 287 288 293 289 291 290 291 290 290 289 290 290 290 291 291 291 290 290 290 290 289 289 289 288 288 288 288 288 289 289 289 289 290 290 290 290 290 290 291 292 292 292 292 291 291 290 289 289 289 289 289 290 289 289 289 289 289 289 289 289 289 289 289 289 289 289 290 289 289 288 288 289 288 288 288 288 289 289 290 289 290 290 289
292 292 293 293 293 293 294 292 292 290 288 285 291 291 287 288 294 294 291 290 292 295 292 291 291 290 291 291 291 290 290 290 289 290 289 289 288 288 288 288 288 288 288 288 289 289 290 290 289 289 289 290 290 291 291 291 292 291 291 290 289 289 289 289 290 289 289 289 288 288 288 288 288 288 288 288 289 288 289 289 288 288 287 287 286 286 286 286 287 287 288 288 288 288 289 289 288
293 295 295 293 292 292 291 292 291 288 283 286 293 292 290 286 292 294 294 295 297 295 292 292 292 291 291 291 291 290 289 289 289 289 289 289 288 288 287 287 287 287 288 288 289 289 290 289 289 289 289 289 290 290 291 291 291 291 291 291 290 289 290 289 289 288 288 288 287 288 287 288 288 288 288 288 288 288 288 288 288 288 288 287 287 287 287 287 287 287 287 288 287 287 287 288 288
295 294 293 293 290 291 290 288 289 284 284 287 286 289 291 283 290 295 298 292 294 296 293 291 290 290 290 291 291 290 290 289 289 289 288 288 287 287 287 286 287 287 287 288 288 289 289 289 289 288 288 289 290 290 290 290 291 291 291 290 290 290 290 289 288 288 288 287 288 287 287 287 287 288 287 287 287 288 288 287 288 287 287 287 287 287 287 287 287 287 287 287 287 287 287 287 287
293 294 293 289 287 285 283 285 281 282 284 284 286 287 285 286 293 297 296 296 294 294 295 294 291 291 291 291 290 290 290 290 289 288 288 287 287 286 286 286 286 286 287 287 288 289 289 289 289 288 288 289 289 290 290 290 290 290 290 289 289 289 289 289 288 288 288 287 287 287 287 286 286 286 286 285 286 286 287 286 286 286 286 286 286 286 286 286 287 286 286 286 286 286 285 286 285
291 291 290 288 284 282 280 283 283 282 285 284 285 288 284 291 293 297 297 294 292 291 291 293 293 292 291 291 291 290 290 289 289 288 288 287 287 287 287 286 287 287 287 287 287 288 289 289 289 288 288 289 289 289 289 289 289 289 289 289 289 289 288 288 288 287 287 287 287 286 286 285 285 285 285 285 285 286 286 286 286 285 285 285 285 285 285 286 286 285 285 285 285 285 285 285 285
292 297 294 290 289 284 280 283 281 284 284 282 285 283 285 285 291 288 288 287 289 288 289 290 293 293 292 292 291 290 289 289 289 288 288 288 288 287 287 287 287 287 287 287 287 287 288 288 288 287 287 288 288 288 289 288 288 288 289 289 289 289 288 287 287 287 287 286 286 286 286 285 285 285 284 284 285 285 285 285 285 284 284 284 284 284 285 285 285 285 285 284 284 285 284 285 284
292 293 295 290 289 293 286 284 285 283 283 281 281 284 290 291 289 289 287 288 287 288 288 289 290 291 291 290 290 290 289 289 289 288 288 288 287 287 287 287 287 287 286 287 287 287 288 288 288 288 287 287 288 288 288 288 288 288 288 288 288 287 287 287 286 286 286 286 285 285 284 284 285 284 284 284 284 284 284 284 284 283 283 283 283 283 283 283 283 283 283 283 283 284 283 283 283
290 290 287 291 294 293 283 281 280 280 282 283 287 286 289 293 292 288 288 287 288 287 288 288 289 290 290 290 290 290 290 289 289 288 288 288 287 287 287 287 287 286 286 287 287 287 288 288 287 287 287 287 287 288 287 287 287 287 287 287 287 287 287 286 285 285 285 285 285 285 284 284 284 284 284 284 283 283 283 283 283 283 283 283 283 283 282 283 283 283 282 282 282 283 282 283 283
291 286 292 292 295 295 290 285 282 283 281 283 285 284 287 286 286 289 289 288 289 288 287 288 288 289 289 290 290 290 290 290 289 289 289 288 287 287 287 287 287 286 286 287 286 287 288 288 287 287 287 286 287 287 287 287 286 286 286 286 286 286 286 285 285 285 285 285 285 284 284 284 283 283 283 283 283 283 283 282 282 282 282 282 282 282 282 282 282 282 282 282 282 282 282 282 282
293 292 299 291 286 285 289 286 280 279 279 282 283 285 287 289 290 288 289 289 290 289 288 287 287 287 289 290 291 291 290 289 289 288 288 288 287 287 287 286 287 287 287 287 287 287 287 288 287 287 287 287 287 287 287 287 287 287 286 286 285 285 285 285 285 285 285 284 284 284 283 283 283 283 282 283 282 282 282 282 282 281 281 281 281 281 281 281 281 281 281 281 281 281 281 281 281
291 292 291 294 291 290 285 287 286 287 283 280 282 280 283 290 293 293 294 293 293 291 287 287 289 289 289 290 291 290 290 289 289 289 289 288 288 287 287 287 286 286 286 287 287 287 286 287 287 287 287 287 286 286 286 286 286 286 285 285 285 285 285 284 284 284 284 283 283 283 283 282 282 282 282 282 281 281 281 281 281 280 280 280 280 280 280 280 280 280 280 280 280 279 279 279 280
287 290 289 290 289 290 291 289 286 286 283 282 283 281 285 291 295 296 296 296 295 291 289 290 290 291 291 291 291 291 291 290 290 289 289 288 287 287 287 287 287 287 287 287 286 286 286 287 287 287 286 286 286 286 286 286 285 285 284 284 284 284 284 284 283 283 283 283 282 282 282 282 282 281 281 281 280 280 280 280 279 279 279 279 279 279 279 279 279 278 278 278 278 278 278 278 279
291 291 289 291 287 285 283 283 287 284 285 282 281 281 287 292 289 294 295 295 295 293 292 292 292 292 292 291 292 292 291 290 290 290 289 288 288 287 287 287 287 286 286 286 286 287 286 286 287 286 286 286 286 286 286 285 285 285 284 284 284 283 283 283 283 282 282 282 281 281 281 280 280 280 280 279 279 279 279 279 278 278 278 278 278 278 277 277 277 277 277 278 277 277 277 277 277
Wind_Speed
5 4 3 2 2 2 3 2 3 2 3 4 4 1 5 1 2 3 2 3 2 3 1 1 2 2 4 4 6 3 4 5 6 6 6 3 2 3 1 2 1 1 6 9 7 9 9 6 5 8 8 11 12 12 12 12 12 12 12 12 11 11 11 10 9 9 8 8 8 9 9 8 8 8 8 8 9 9 9 8 9 10 10 11 11 11 10 11 11 12 11 11 11 11 11 10 10
3 4 2 2 1 2 2 2 1 4 3 6 5 2 4 1 3 2 5 4 4 2 3 3 1 2 3 4 4 4 2 2 6 5 2 2 2 3 2 2 1 1 6 8 8 10 11 11 5 8 9 11 10 11 11 12 12 12 11 11 11 10 10 10 9 8 8 8 8 8 8 8 8 8 7 8 8 8 8 8 8 8 9 9 9 9 11 11 12 12 11 11 11 11 11 11 10
3 4 2 2 1 2 3 2 3 3 5 5 4 3 1 2 2 2 3 3 3 4 3 2 1 3 4 5 2 4 7 2 2 1 2 2 4 6 5 2 2 1 6 7 8 10 10 11 7 9 10 12 12 12 12 12 11 11 10 10 10 10 9 9 8 8 8 8 8 8 8 8 8 7 7 7 7 7 7 8 7 8 9 10 9 9 10 10 11 11 10 11 11 11 10 10 9
2 2 3 1 1 2 2 1 3 3 4 4 5 3 1 2 4 3 3 4 4 3 2 2 2 3 4 3 4 4 5 4 4 5 2 5 5 7 5 2 2 2 6 6 8 9 9 10 8 8 11 12 12 12 11 12 12 11 10 10 10 9 9 8 8 8 7 7 7 7 8 7 7 7 6 7 7 7 8 8 8 8 8 9 9 8 8 9 10 10 10 10 10 10 10 9 9
2 0 3 1 3 2 1 2 2 1 5 2 5 3 1 1 2 3 3 3 2 2 2 2 2 2 2 2 3 3 6 1 4 3 3 3 4 6 3 2 1 3 6 7 8 9 8 9 6 7 10 11 13 12 11 12 12 11 10 8 10 10 8 7 8 8 7 7 7 7 7 7 7 6 6 6 6 6 6 8 8 8 8 8 7 7 8 9 10 10 10 10 9 9 9 8 8
2 2 2 2 1 2 2 4 4 4 5 3 6 5 2 2 2 4 4 2 2 1 2 2 4 3 2 3 2 3 7 3 6 3 6 5 10 8 2 1 1 3 6 6 7 8 8 6 4 4 7 10 12 11 11 12 12 11 10 10 10 10 10 8 7 7 6 7 7 7 6 6 6 6 6 6 6 6 7 7 8 8 7 6 6 6 7 8 9 9 9 9 9 9 8 8 8
3 2 1 2 4 2 0 4 6 5 4 3 4 4 2 3 3 4 1 3 2 2 1 2 2 3 3 2 2 1 5 4 5 5 6 10 8 6 3 3 2 2 5 5 6 7 7 6 2 2 4 7 10 9 10 12 12 11 10 10 9 9 9 8 7 8 6 7 7 8 7 6 6 5 6 6 6 6 7 7 9 8 6 3 7 8 7 5 7 8 8 8 10 10 9 8 8
2 2 2 1 3 1 4 4 5 1 4 2 3 2 3 3 2 2 2 3 4 1 2 1 2 3 5 2 3 4 7 6 5 6 7 6 6 4 4 5 3 3 3 3 4 6 8 3 1 1 1 5 6 8 11 10 11 10 10 9 8 8 8 7 7 7 7 6 7 7 8 7 6 7 5 6 6 6 6 7 8 7 8 9 9 9 10 7 4 6 7 9 9 9 8 8 8
3 1 1 2 3 2 4 3 4 2 1 2 2 4 5 4 3 4 1 1 1 1 3 2 2 4 4 1 5 3 6 10 4 6 9 8 7 4 3 5 4 3 2 2 2 5 6 5 1 1 1 3 6 9 10 11 10 11 10 9 9 8 8 6 5 6 5 6 4 5 6 5 6 6 7 6 6 6 6 7 7 7 8 9 9 9 9 9 8 8 7 8 9 9 8 8 8
2 3 2 1 1 4 4 4 4 3 1 1 3 2 2 0 1 3 3 2 3 2 2 2 2 5 1 5 6 4 6 9 5 7 10 8 6 4 4 4 4 2 1 2 3 4 4 6 1 1 1 1 4 7 9 9 11 10 10 9 8 7 6 5 4 5 5 4 7 6 4 4 4 6 6 5 5 6 7 7 7 7 7 7 9 9 7 6 6 7 8 8 8 8 7 7 7
1 2 1 3 3 5 5 5 3 4 1 0 3 2 3 2 4 2 1 3 0 2 2 2 3 3 2 4 4 2 1 9 14 13 10 7 4 4 3 3 3 2 1 3 3 3 4 6 3 1 1 1 1 5 6 8 10 10 9 8 8 7 6 5 5 4 3 4 4 5 6 5 3 5 6 6 6 5 6 6 6 6 6 6 7 7 5 4 6 7 8 8 8 7 7 7 7
1 1 2 2 3 2 3 4 3 4 3 3 4 1 1 1 3 2 1 0 2 0 1 2 2 2 1 3 4 4 6 14 12 9 9 5 4 3 3 3 4 4 2 2 2 3 3 4 5 5 1 1 1 1 5 6 5 7 8 8 7 6 6 5 5 4 3 2 4 3 4 4 1 4 3 4 5 5 5 6 5 4 5 6 6 6 5 7 7 8 8 8 7 7 7 7 7
2 1 2 3 2 1 3 3 4 2 5 3 3 2 0 3 2 2 2 1 1 2 3 2 2 2 1 1 3 2 7 13 12 10 8 6 4 4 4 5 5 5 4 2 2 1 2 3 5 6 5 0 1 1 2 4 6 6 7 7 6 6 5 5 6 5 3 3 1 2 3 5 5 2 3 6 5 3 4 5 3 4 4 5 6 7 9 10 8 7 7 7 7 7 7 7 6
0 1 1 2 1 1 3 3 2 6 4 4 0 1 2 2 2 3 2 3 2 3 3 3 1 4 0 3 4 2 7 14 14 11 6 5 4 6 7 5 7 7 6 5 4 2 1 2 3 5 5 7 8 4 2 1 5 6 5 5 6 5 4 5 5 4 2 3 3 1 3 5 3 3 3 2 3 3 2 1 2 2 4 6 8 9 10 9 8 7 7 7 7 7 7 7 6
2 1 3 4 3 2 0 4 6 5 5 3 3 2 1 2 2 1 3 5 4 2 1 1 3 5 2 4 3 5 11 15 13 10 4 3 4 6 7 6 6 7 7 6 5 5 4 3 3 4 5 7 9 9 9 6 2 6 6 3 4 7 7 7 6 5 5 3 4 4 3 3 4 5 7 3 2 4 6 2 2 2 2 6 8 9 9 9 8 7 7 7 7 8 7 7 6
2 2 1 4 4 4 4 2 1 4 5 3 3 1 3 5 1 1 2 3 4 3 4 2 2 4 5 3 5 9 11 12 12 8 3 5 3 4 5 6 5 6 5 7 5 5 6 4 3 3 4 6 7 8 8 9 6 3 5 5 3 6 8 8 8 7 6 6 6 4 2 3 4 4 8 6 4 2 5 7 5 3 2 5 8 10 9 8 8 7 7 7 7 7 7 7 7
0 2 3 2 4 5 5 4 6 4 7 3 2 2 3 0 5 1 1 2 5 2 3 6 3 5 6 4 6 7 9 9 8 4 6 6 4 3 4 5 5 4 4 5 6 6 5 5 5 4 4 5 7 8 8 8 5 6 5 8 7 5 5 7 6 7 7 7 7 6 4 5 6 3 5 2 5 4 3 4 5 4 3 5 7 9 10 8 8 8 7 7 6 6 6 7 8
3 1 2 3 3 4 7 5 5 3 5 5 2 1 2 2 0 3 3 2 2 5 2 8 9 9 7 5 4 5 7 9 10 10 8 6 5 5 5 6 6 6 5 5 5 7 6 5 6 5 5 6 6 6 6 7 6 5 9 6 6 7 7 5 6 6 4 5 3 4 5 5 5 4 2 4 3 4 5 3 7 3 3 6 7 8 9 9 10 9 7 7 6 5 0 0 3
1 2 2 1 3 3 2 2 4 3 6 4 2 1 2 2 4 2 5 4 4 1 6 6 7 9 7 8 9 9 9 10 11 11 11 11 8 9 6 5 6 6 6 6 5 7 6 5 5 5 5 5 6 7 5 6 8 6 7 7 4 6 7 5 6 6 5 4 3 4 5 5 4 4 2 1 1 4 2 5 7 4 5 6 7 8 9 10 11 10 9 7 7 4 1 1 2
2 3 1 3 2 3 1 1 3 1 3 3 3 3 3 2 2 2 4 5 2 1 2 3 2 5 6 7 9 9 9 9 11 11 12 11 10 8 8 8 7 7 7 6 6 5 6 6 6 6 6 5 6 5 5 6 6 7 7 6 5 4 6 6 7 6 5 5 4 5 5 5 4 4 7 6 4 4 4 5 4 7 9 8 9 6 6 5 9 10 10 9 5 1 2 2 2
2 2 2 3 3 2 3 4 0 1 1 0 1 4 3 1 1 3 2 8 4 4 6 4 4 4 5 6 7 8 8 10 10 11 11 10 9 7 7 7 6 7 7 7 6 7 8 7 6 5 5 6 5 5 5 5 5 6 6 6 6 6 4 4 6 7 7 6 6 5 5 4 5 5 5 4 5 3 3 4 5 5 6 6 8 5 5 5 6 5 4 4 0 1 1 2 2
1 4 4 4 2 2 5 3 3 2 1 2 2 4 1 2 2 4 4 4 3 3 5 5 5 4 5 6 6 7 9 10 11 11 10 10 10 9 8 6 6 5 7 6 8 8 9 8 7 5 4 4 5 5 5 4 5 5 5 4 5 6 6 2 1 2 3 4 5 5 6 6 6 6 5 5 5 4 4 4 4 5 4 3 5 5 4 4 3 2 3 2 1 1 1 1 2
1 3 0 1 1 2 3 4 4 4 4 4 3 1 2 3 4 1 4 3 4 3 4 4 4 4 3 4 5 7 9 9 10 10 9 9 9 9 8 7 7 8 7 7 7 8 8 8 8 6 3 3 4 3 3 4 5 4 5 4 5 4 3 3 4 4 3 2 4 3 4 5 6 5 6 6 6 5 4 4 4 4 4 3 2 2 4 4 3 2 2 2 2 2 2 1 1
3 2 2 2 3 4 3 2 5 5 4 4 2 3 4 3 5 2 2 3 4 4 4 4 4 4 4 7 8 8 7 7 7 7 6 6 7 8 8 7 7 6 6 8 7 7 7 8 8 4 1 3 3 4 4 3 3 3 3 3 4 2 3 2 5 4 3 3 3 3 4 5 3 3 6 7 6 4 3 2 2 3 4 4 5 4 3 3 2 2 2 1 2 2 2 2 1
1 1 2 2 1 4 2 3 4 5 6 2 3 4 4 5 1 5 3 4 3 4 3 3 3 5 6 8 8 7 7 7 7 6 5 4 5 6 7 6 7 6 8 9 8 8 8 8 7 4 3 3 5 5 4 3 3 3 1 2 1 1 0 2 3 4 5 4 4 4 2 5 6 5 5 5 4 4 3 3 2 3 4 3 3 2 1 2 2 2 2 2 1 1 1 1 1
0 2 0 2 3 2 4 5 7 6 2 4 5 5 1 2 3 3 3 4 4 4 4 3 3 7 7 7 7 7 7 7 7 7 7 5 6 8 9 9 8 9 9 8 8 7 8 9 7 5 5 5 5 5 5 4 3 4 4 9 9 8 9 10 11 9 8 8 9 9 8 6 4 3 4 3 2 2 0 1 2 1 2 1 1 1 1 1 2 2 1 1 1 1 1 1 1
1 1 2 4 3 3 2 4 1 1 3 4 5 3 3 3 3 3 3 5 5 4 5 5 5 7 7 6 6 6 6 7 7 6 6 6 7 9 10 9 10 10 9 10 9 8 8 8 8 6 4 5 6 6 6 9 10 9 9 8 8 8 9 9 9 9 9 7 7 8 8 9 7 7 5 3 5 4 3 2 2 2 3 3 2 2 3 3 3 2 3 2 1 1 1 1 2
1 4 6 6 4 5 2 4 2 2 2 4 6 2 2 3 3 3 4 6 5 4 5 5 5 4 4 4 4 4 5 6 6 6 9 10 8 8 9 9 10 10 9 10 8 9 9 9 8 8 8 8 10 11 10 10 9 9 9 8 8 8 8 8 9 8 7 7 8 8 8 8 8 7 8 7 7 6 6 6 6 5 5 4 4 4 4 4 4 5 6 6 5 4 3 2 3
1 3 7 5 5 4 3 2 2 3 2 3 4 4 5 4 4 3 3 4 5 4 5 4 4 3 3 4 4 5 6 6 6 7 8 6 6 7 8 8 8 8 6 8 9 9 10 9 9 10 9 11 11 12 10 8 9 9 9 8 8 8 8 8 8 7 6 6 7 9 9 8 7 7 7 8 7 7 6 7 6 5 5 5 5 5 6 6 5 4 4 4 4 3 3 2 1
1 2 3 9 4 3 3 1 1 4 3 2 3 5 5 5 5 5 3 5 4 4 3 3 2 3 3 4 4 4 5 5 7 7 6 6 6 7 8 9 9 7 6 7 9 10 8 5 7 8 11 12 12 11 9 9 9 8 8 8 8 10 8 8 7 7 7 7 7 9 8 9 9 7 7 8 8 8 8 7 6 6 6 6 5 5 5 5 5 4 3 2 4 4 5 5 5
4 1 2 4 5 1 2 2 4 2 2 3 5 6 2 6 5 4 3 3 5 3 2 2 3 3 3 3 3 4 5 5 6 6 7 7 6 6 7 8 8 8 6 7 8 8 9 8 7 8 10 11 11 11 11 10 8 9 8 7 8 8 8 8 8 7 8 8 7 8 10 10 10 11 10 8 8 8 8 8 9 8 7 7 7 5 5 5 5 4 3 4 3 3 3 3 3
1 4 4 2 3 2 2 4 3 3 3 2 4 7 3 7 6 5 2 1 6 4 3 2 3 3 2 2 2 3 3 4 5 6 7 7 7 6 7 7 7 7 7 7 6 7 9 9 9 10 12 13 12 10 10 10 10 9 10 10 9 9 9 9 8 8 8 8 8 9 10 10 10 10 10 10 9 9 9 9 8 7 7 7 6 6 7 7 5 4 5 3 3 3 3 4 3
1 4 5 4 1 3 6 3 2 3 1 2 5 4 3 5 5 4 2 2 5 5 3 2 2 2 1 2 2 2 2 3 4 6 8 7 6 6 6 6 6 6 6 7 7 7 8 9 9 11 12 11 12 12 12 11 11 11 11 10 10 10 10 9 8 7 8 8 8 9 9 9 10 10 10 9 8 8 8 8 7 8 7 5 5 6 7 6 5 5 5 4 4 3 3 2 2
5 1 5 1 4 1 3 3 2 2 2 4 3 5 3 4 6 2 2 1 4 4 4 3 2 1 1 1 1 2 2 3 5 6 8 7 6 7 5 5 5 6 6 6 6 6 7 7 8 9 10 11 10 10 10 10 10 11 10 10 11 11 11 9 8 8 9 8 8 8 9 8 8 9 9 8 9 8 8 7 8 8 6 6 8 9 8 6 6 5 6 5 4 4 3 4 4
3 4 4 5 4 7 7 3 2 3 3 5 2 6 7 6 4 2 2 2 3 4 4 4 3 3 2 1 2 2 2 3 4 4 6 6 6 6 5 5 5 5 5 6 6 6 7 7 7 8 9 9 10 11 11 10 11 12 10 10 11 11 10 9 8 9 8 8 8 9 8 8 8 9 9 9 7 7 7 7 7 6 5 6 8 8 7 7 7 7 6 5 4 4 4 3 3
2 5 4 3 6 5 4 3 2 2 6 8 7 9 10 7 7 5 4 4 5 5 4 4 4 4 3 3 2 2 2 3 2 3 4 4 4 4 4 4 4 5 5 5 7 7 8 8 7 8 8 8 8 8 7 8 8 8 9 8 11 10 9 9 9 9 8 9 9 9 9 9 9 9 10 9 9 8 8 8 8 9 9 8 9 10 9 8 7 5 6 5 4 4 6 5 5
5 2 1 6 7 9 3 2 2 1 4 10 11 12 13 12 9 7 5 4 4 5 6 5 5 4 4 4 4 3 3 2 1 2 3 4 4 3 3 3 4 6 6 6 7 8 7 6 7 9 6 7 6 6 6 7 7 7 8 10 10 8 8 8 9 9 9 9 9 9 10 9 10 10 10 10 9 9 9 8 9 10 9 10 10 10 9 9 8 6 4 6 7 6 7 7 8
4 3 5 7 5 10 1 2 3 0 3 5 1 6 12 12 5 5 5 4 6 6 6 5 6 5 4 5 5 4 3 3 2 3 3 3 3 3 3 4 5 6 6 6 7 7 7 7 9 7 6 8 8 8 8 9 8 7 8 8 8 8 8 8 9 8 8 8 10 10 10 10 11 11 10 10 10 10 9 9 9 9 9 9 9 9 10 9 10 10 7 5 6 7 8 9 9
3 6 4 5 8 5 5 1 2 2 3 10 1 8 11 12 5 6 6 7 3 3 3 2 3 4 3 3 3 4 4 4 4 4 3 3 3 4 4 5 4 5 5 6 6 7 7 7 8 7 7 8 8 8 9 10 9 9 9 9 9 9 9 9 9 9 9 10 10 11 10 10 10 10 11 10 9 10 10 10 9 8 9 8 8 9 9 10 9 10 10 7 5 7 7 8 10
6 5 5 9 1 2 5 4 2 3 4 2 3 6 10 9 5 6 5 6 4 2 2 2 2 2 3 3 3 4 4 5 5 4 4 3 4 4 4 4 4 4 4 5 6 7 6 7 7 8 8 9 10 10 12 12 13 13 12 12 11 10 9 9 10 10 10 11 11 11 10 10 11 11 11 10 10 10 10 9 8 9 9 9 8 9 10 11 10 10 10 10 7 7 7 8 9
8 8 9 10 6 8 9 1 1 3 3 1 5 8 12 12 10 6 6 4 4 4 3 3 3 1 1 1 2 3 5 5 5 6 5 4 5 4 4 3 3 4 5 5 4 4 5 7 7 8 9 9 9 11 12 11 12 13 11 11 10 11 9 9 9 10 10 10 10 11 10 11 11 10 11 11 10 10 10 9 9 8 9 9 8 9 9 10 9 9 10 9 10 7 8 7 8
5 11 13 12 8 9 5 1 2 5 5 5 4 6 7 2 5 6 5 4 5 4 4 5 5 5 5 6 6 4 2 2 3 4 4 4 4 4 4 4 4 4 5 4 4 4 5 6 7 8 8 8 8 8 7 7 8 9 9 9 9 8 9 8 9 8 8 9 9 8 10 10 10 10 10 11 10 9 10 9 9 9 9 8 8 8 8 9 10 10 9 8 9 9 7 7 7
6 5 11 14 12 6 3 5 3 5 6 2 3 8 5 2 3 4 4 5 5 4 6 6 7 7 7 7 7 6 6 5 2 3 4 4 4 4 4 4 4 5 4 3 4 5 6 6 7 7 7 7 7 7 7 7 8 8 9 9 9 9 10 8 7 6 7 7 6 8 8 9 10 10 10 10 10 10 9 9 9 9 8 8 8 8 8 9 8 8 8 8 8 8 8 8 8
7 2 2 5 6 8 9 8 8 5 4 1 2 4 7 7 8 5 3 4 6 7 9 9 9 9 9 8 7 7 6 5 5 5 4 3 3 3 5 4 4 4 4 4 4 5 6 7 8 8 7 7 7 7 7 7 9 9 10 11 9 9 10 9 8 7 7 6 7 7 7 8 9 9 9 10 10 9 9 9 9 9 9 8 8 8 8 8 7 7 7 7 7 7 8 7 7
1 2 2 5 7 6 6 6 5 2 2 7 6 5 4 7 5 4 3 4 8 12 12 13 12 11 11 10 8 7 6 6 6 6 6 6 5 4 4 4 4 4 3 4 4 5 6 7 8 9 9 8 7 8 8 8 9 9 10 9 11 9 9 8 7 6 6 6 8 7 7 7 8 9 9 9 10 9 9 8 8 9 8 8 7 7 8 8 8 8 8 8 8 7 6 6 6
2 5 7 6 6 5 4 4 4 2 4 9 9 10 7 10 7 6 4 5 11 10 13 13 13 13 12 11 10 8 7 6 5 5 5 5 4 3 3 4 5 4 3 4 5 5 6 7 9 11 10 8 8 9 10 10 9 9 10 10 13 9 8 7 6 7 6 5 7 7 6 6 6 7 8 9 9 9 9 9 8 9 9 8 7 7 6 7 7 7 7 7 7 7 6 6 6
10 6 8 6 6 4 3 1 2 1 7 11 11 14 10 8 7 10 7 8 5 5 6 9 11 11 11 10 11 9 9 8 7 6 5 5 3 4 4 5 5 5 4 4 5 5 6 8 9 11 10 8 8 9 10 10 9 9 10 10 11 11 9 8 8 7 6 6 7 6 6 6 6 6 6 6 8 7 7 8 7 7 6 6 6 7 7 6 6 6 5 6 7 7 6 5 5
6 4 5 6 3 2 2 1 2 5 7 4 3 5 10 11 4 8 6 5 2 5 10 15 15 15 14 12 11 10 10 9 8 7 7 7 6 5 5 6 6 6 5 5 5 5 6 7 9 13 10 9 8 8 9 10 9 10 10 10 10 9 8 7 8 8 7 7 6 6 5 5 5 5 5 6 7 7 6 6 6 6 7 7 7 6 6 6 5 5 5 5 5 6 6 5 5
2 5 7 7 3 2 5 3 5 9 7 2 2 5 3 15 11 2 2 4 4 3 0 12 15 15 15 13 12 10 9 9 9 8 8 8 8 8 8 7 7 7 6 7 6 6 7 8 9 13 10 8 8 8 10 10 10 9 9 9 9 8 8 9 8 8 6 6 5 6 6 6 5 6 6 6 7 8 6 6 7 6 6 6 6 6 6 6 5 5 5 5 5 5 5 5 5
6 10 10 8 5 5 5 5 2 4 1 1 1 3 7 3 9 15 12 4 4 3 2 2 12 16 16 14 12 10 9 9 9 8 8 8 8 8 8 8 7 7 7 7 7 6 6 7 8 12 10 8 8 9 10 10 10 9 8 8 8 7 8 8 7 7 6 6 5 6 5 5 5 5 5 6 5 5 5 5 5 5 5 5 6 5 5 5 5 4 4 5 5 4 4 4 4
12 4 10 7 6 4 6 5 6 3 1 3 2 3 4 6 4 5 4 2 3 2 2 2 4 10 12 12 11 10 10 9 8 8 8 8 8 8 8 7 7 7 8 7 6 6 7 8 9 11 11 9 9 9 9 10 9 9 8 7 7 7 7 7 7 6 6 6 5 5 5 4 5 4 4 4 4 4 4 4 5 5 5 5 5 5 4 4 4 3 3 4 3 4 4 4 3
3 1 3 2 8 1 5 2 1 1 1 3 3 5 1 5 3 2 2 2 2 2 2 2 7 8 10 10 12 12 10 10 9 9 9 9 8 8 7 7 7 7 8 6 7 6 7 8 9 10 11 10 9 9 9 9 9 8 8 8 8 8 7 7 7 6 6 6 5 5 5 4 4 4 3 3 2 2 2 2 3 4 4 4 4 4 4 3 3 3 3 3 3 2 3 3 3
8 6 8 7 5 2 4 2 3 1 1 9 6 5 5 4 2 4 3 4 4 3 4 4 7 10 11 11 11 11 10 10 10 10 9 10 9 8 7 8 7 7 7 8 8 7 8 9 10 11 10 9 9 9 9 9 9 9 9 8 8 7 7 7 7 7 6 5 5 4 5 4 3 3 3 2 2 2 3 3 3 4 4 4 4 4 4 4 3 2 3 3 3 3 3 3 3
10 7 9 4 1 4 2 6 2 2 7 5 5 10 7 7 6 4 4 4 6 6 6 7 8 10 13 13 12 12 12 11 10 10 9 10 10 10 9 8 8 9 9 8 9 7 7 7 10 12 11 12 9 9 9 9 10 9 9 8 7 7 7 7 7 6 5 5 5 4 4 4 4 3 2 1 2 2 2 3 3 3 3 3 3 3 3 3 3 2 2 2 2 3 3 3 3
3 3 3 8 6 5 5 1 6 4 6 5 6 6 9 10 8 4 7 9 10 11 9 9 11 12 14 13 14 11 10 10 11 12 11 11 11 11 10 10 9 8 8 8 8 7 7 7 8 9 11 11 11 8 8 7 7 6 6 7 7 6 6 6 5 5 5 5 5 4 4 3 3 2 2 2 2 2 2 2 2 2 2 2 2 2 3 3 3 3 3 2 3 4 4 4 3
1 2 4 3 3 4 7 5 1 1 7 0 3 5 7 10 9 13 13 13 13 13 10 12 14 15 14 14 15 15 15 14 12 12 12 11 11 12 12 11 11 10 9 8 9 8 9 8 9 9 9 9 9 10 9 9 7 7 7 7 6 6 6 6 5 5 5 5 5 4 4 3 3 2 2 2 2 2 2 2 2 2 2 2 3 3 3 4 4 4 4 4 4 5 5 5 4
6 7 9 4 2 3 3 1 3 3 4 4 7 6 3 7 8 12 13 11 12 15 15 12 12 14 15 15 16 16 15 13 13 12 12 11 11 11 10 9 9 8 8 8 8 9 9 8 9 9 11 11 10 10 9 8 7 8 8 8 7 6 6 5 6 5 5 5 5 4 3 3 2 2 1 1 2 1 2 2 2 2 3 3 4 5 4 4 4 4 4 4 5 5 5 4 4
12 16 16 16 10 7 6 8 5 2 3 5 4 10 1 3 2 3 4 2 6 11 12 12 13 13 14 13 15 15 13 13 12 11 10 10 11 10 10 9 8 8 8 10 9 9 9 10 9 10 10 10 11 10 9 9 8 8 8 8 8 6 6 5 6 5 5 5 4 3 3 2 3 2 1 1 1 1 2 3 2 3 4 4 4 4 4 4 4 4 4 3 4 5 5 5 4
Wind_Direction
330 339 320 318 271 283 255 357 213 90 233 86 117 222 83 301 328 260 147 196 180 67 329 306 270 208 303 16 352 342 341 353 23 359 59 58 64 44 10 161 36 50 161 162 164 163 176 174 173 159 163 157 157 151 147 142 143 140 139 135 135 132 132 131 132 132 131 127 121 119 118 115 108 103 97 90 80 75 75 78 100 104 103 98 91 83 78 73 69 68 61 58 55 51 48 43 38
327 327 295 264 269 277 168 309 78 137 113 126 81 310 77 10 230 68 79 46 29 46 349 293 277 288 285 285 286 265 150 306 345 28 75 79 67 82 35 198 113 156 167 160 165 166 174 164 161 154 157 157 158 152 148 147 146 146 142 140 138 136 135 135 135 136 138 133 131 127 123 119 116 110 102 92 82 77 76 82 97 105 103 98 89 86 81 81 74 64 60 56 51 46 43 38 34
339 325 251 217 231 356 112 267 191 138 144 111 109 66 143 192 74 90 49 33 17 352 323 284 289 242 230 222 193 324 83 316 291 146 319 105 212 66 27 190 176 280 172 163 169 169 175 167 158 159 158 160 159 154 154 152 149 148 144 143 140 139 139 139 139 137 140 138 135 132 129 126 123 120 112 106 96 84 80 81 94 95 90 91 87 82 84 82 77 70 62 55 52 45 39 35 34
276 344 310 284 155 240 246 158 107 170 106 81 118 113 268 54 82 21 358 3 336 315 278 196 253 78 299 78 43 260 58 86 26 356 78 41 21 330 352 152 172 227 174 168 171 171 182 144 167 155 160 161 159 158 158 154 151 150 149 148 147 142 143 143 144 142 142 142 141 140 137 133 128 130 124 115 106 98 94 89 91 95 95 87 85 82 80 79 79 76 69 62 55 51 41 34 30
228 342 315 219 261 110 346 48 77 242 124 168 99 127 159 234 31 7 37 354 340 276 283 4 243 116 3 318 321 333 41 352 78 1 5 92 4 343 345 104 218 184 172 172 172 172 175 132 164 162 157 162 164 160 157 154 155 156 155 152 147 146 146 149 149 148 152 148 148 146 145 137 140 141 130 120 111 103 101 102 104 108 103 95 93 85 72 72 80 74 72 66 61 54 47 39 34
206 261 36 300 325 31 195 158 138 80 51 358 118 85 69 42 355 2 328 12 68 275 339 294 351 5 164 69 341 1 359 355 347 67 332 59 352 338 37 78 290 162 159 169 171 177 179 125 159 164 159 166 168 164 158 160 160 160 159 159 155 151 151 159 155 155 167 154 155 155 153 157 153 151 142 127 118 115 110 113 114 107 106 103 94 64 56 74 78 72 68 61 56 54 49 41 37
352 232 61 94 118 248 240 112 109 108 76 320 63 96 57 46 353 314 19 182 146 165 192 2 300 249 180 50 203 32 38 351 319 10 348 327 353 3 18 2 337 121 141 157 174 178 168 112 149 162 154 169 172 165 168 167 163 163 160 161 157 160 156 160 161 157 167 165 161 159 168 173 168 149 146 137 132 127 121 122 120 119 118 98 59 51 63 82 79 72 59 54 51 51 48 41 39
135 269 21 261 68 269 111 104 101 11 114 293 355 314 48 19 334 276 56 272 73 310 70 142 266 315 61 265 63 77 79 29 10 5 3 9 18 44 23 358 20 83 127 131 158 182 93 112 116 111 156 169 171 171 176 174 168 164 161 164 162 164 160 167 171 160 172 182 173 176 177 176 165 156 165 146 145 137 132 129 129 125 104 84 71 60 49 63 73 51 67 58 56 56 51 43 40
16 13 195 230 108 73 133 109 90 2 92 226 254 254 298 323 302 291 126 54 168 263 313 0 1 271 54 120 75 65 65 16 67 41 21 27 33 30 38 19 13 45 99 126 145 186 188 126 194 115 61 176 168 182 182 170 175 166 167 165 170 172 164 173 180 160 182 184 190 196 187 188 147 166 165 156 152 149 140 141 136 123 102 91 81 70 66 71 86 92 72 64 63 61 55 48 42
102 315 134 48 109 136 129 128 167 105 31 21 298 327 341 195 263 262 326 138 40 283 51 341 300 27 331 108 122 74 27 12 21 28 15 20 31 55 56 35 38 44 122 172 177 190 181 92 145 159 152 77 180 177 190 179 171 175 174 172 174 168 174 172 182 167 178 212 182 193 224 206 162 169 176 168 155 160 152 149 147 128 115 105 92 85 83 80 93 89 79 71 67 63 60 52 46
135 64 353 189 154 145 182 142 116 146 164 217 248 282 310 266 260 251 279 357 65 344 50 189 175 42 250 89 45 77 157 18 20 9 1 12 29 41 60 46 49 53 104 183 185 194 197 201 115 256 158 167 109 183 189 192 184 180 176 178 175 174 163 159 165 158 178 199 234 184 202 230 191 169 178 185 170 167 159 151 140 130 109 96 83 83 71 82 94 86 77 71 67 65 61 58 52
176 6 239 181 171 213 132 131 121 99 114 184 119 94 74 255 228 243 142 200 29 159 60 243 44 298 155 156 136 112 64 27 14 359 355 359 42 50 34 58 48 55 88 134 182 198 212 200 206 159 247 194 170 147 197 196 199 190 184 178 174 188 160 158 164 161 143 187 229 278 224 226 199 158 182 201 198 168 164 149 146 139 112 92 87 63 60 97 98 82 79 76 69 63 62 61 57
63 274 157 174 95 255 80 151 115 90 146 136 105 90 238 243 286 9 356 315 179 281 86 350 352 258 193 141 86 215 29 17 5 356 349 6 35 56 49 55 48 45 47 88 133 169 217 240 224 216 188 148 201 190 160 185 195 201 182 176 178 169 162 141 158 161 153 140 211 324 18 25 37 123 151 203 185 195 160 142 167 144 114 96 78 62 65 100 92 85 84 77 71 64 59 58 57
335 297 277 145 339 118 166 96 133 170 152 109 224 34 204 262 61 327 318 320 121 10 29 2 267 328 265 273 150 182 19 353 350 346 345 6 36 53 53 60 56 46 37 34 40 26 277 241 260 247 224 220 215 168 141 209 186 198 199 196 182 155 160 142 134 131 130 107 113 91 38 51 55 101 176 156 194 163 122 35 39 148 116 89 83 84 92 102 101 96 88 80 73 66 62 57 50
109 237 79 111 128 198 128 184 164 182 134 156 72 336 265 201 318 301 324 330 69 27 42 247 329 285 80 324 95 14 342 333 334 331 334 33 54 55 51 65 71 58 48 38 34 26 6 313 255 245 246 234 228 226 221 189 213 198 198 169 219 171 170 155 144 139 129 102 91 77 90 126 129 111 94 106 154 143 156 172 15 360 120 103 105 102 101 105 104 97 88 79 76 68 62 58 51
90 181 109 149 152 208 155 185 352 193 136 173 73 311 264 126 227 204 55 328 333 144 287 93 114 346 8 331 9 337 329 327 325 312 325 45 41 60 57 47 56 60 48 39 32 18 354 335 294 249 239 236 231 230 226 230 177 224 194 179 188 228 169 161 152 151 148 141 115 106 104 155 159 145 129 128 197 164 175 176 163 133 110 115 115 112 108 106 108 99 90 86 77 68 62 57 50
316 271 165 132 155 223 150 183 172 169 114 140 360 311 285 55 148 296 334 260 283 67 46 40 38 21 47 34 343 329 332 328 335 348 30 32 6 40 34 26 13 51 32 37 26 10 351 338 328 272 246 236 233 233 234 229 201 170 186 175 182 217 232 157 171 162 161 156 155 144 162 244 240 204 163 184 148 194 145 134 112 102 101 82 106 115 118 123 117 106 98 87 81 79 76 73 56
247 211 148 161 85 206 155 177 173 30 129 137 176 358 299 284 20 110 208 187 235 282 122 92 79 75 79 77 16 358 353 7 14 32 31 30 18 18 20 16 9 9 5 5 21 10 353 348 332 309 254 237 231 229 227 225 219 198 229 207 201 185 224 200 182 215 191 208 119 159 227 237 251 241 210 174 190 180 178 187 139 137 117 123 133 133 137 138 127 118 118 107 101 91 154 332 92
356 128 277 72 178 45 158 82 138 166 99 113 127 274 287 323 320 60 297 152 337 250 119 140 112 104 88 46 25 19 16 25 26 35 36 31 22 18 14 1 6 2 2 354 357 2 359 337 337 318 299 250 236 231 226 223 226 213 228 216 200 210 194 212 230 228 236 246 220 226 231 235 244 255 227 97 287 71 163 223 155 140 132 131 139 148 157 153 133 138 137 125 115 146 203 45 48
64 276 116 92 132 72 258 153 142 21 83 132 174 162 249 344 279 1 285 323 218 111 116 171 153 39 34 22 19 10 21 31 33 33 37 32 24 14 8 3 357 1 352 346 340 352 354 344 334 317 304 276 235 230 229 220 218 218 225 218 201 217 216 200 209 219 215 206 202 223 237 239 235 233 108 117 135 193 173 179 273 181 161 154 155 167 163 149 139 145 132 131 155 173 22 12 23
106 248 70 108 142 197 150 214 237 135 236 222 231 147 234 136 284 293 323 301 163 110 55 349 352 20 18 19 15 8 20 29 32 33 34 31 26 20 8 359 350 340 344 330 351 350 350 343 335 320 313 302 245 240 239 227 216 218 225 228 226 226 220 246 248 217 211 208 208 222 230 227 229 234 219 196 217 215 219 220 206 214 202 182 171 200 201 154 189 159 141 167 167 125 73 26 355
200 26 53 102 138 199 121 160 95 146 215 213 150 243 86 97 223 230 252 269 319 51 22 35 53 43 29 15 12 20 26 29 28 28 28 26 17 13 4 357 352 348 352 355 349 345 350 343 335 326 303 275 253 226 236 242 241 221 217 222 236 230 228 201 223 245 242 235 227 225 228 225 229 235 215 207 202 204 206 217 216 223 217 233 198 211 209 198 242 190 160 169 166 107 77 57 9
238 135 285 222 147 297 116 153 168 182 165 191 232 196 108 216 252 139 245 303 58 27 34 53 58 50 45 35 27 36 32 30 27 23 17 17 14 11 5 359 357 357 354 356 347 354 348 345 340 324 291 246 227 206 237 239 235 224 230 213 224 231 244 242 200 209 205 211 228 224 235 240 239 242 237 221 212 213 215 216 225 213 199 176 223 259 209 204 221 184 204 186 138 139 138 130 103
292 75 158 175 189 241 132 175 135 203 206 232 109 105 242 177 262 112 132 65 81 67 58 68 68 62 49 47 35 37 36 33 32 26 16 15 9 5 357 354 355 355 356 348 342 338 330 337 349 342 267 202 180 167 196 231 239 255 225 253 253 305 348 14 20 15 26 28 353 291 247 240 229 243 237 222 213 215 218 209 214 215 210 181 185 216 234 233 214 198 209 149 142 162 158 153 143
240 202 145 112 238 250 248 232 215 216 237 178 161 224 238 208 263 154 100 124 113 99 90 71 71 68 57 50 39 34 33 28 24 25 28 18 9 4 11 3 1 7 359 350 337 336 330 332 2 41 117 182 150 148 162 162 197 208 80 219 141 25 339 16 103 49 30 27 35 10 289 234 232 231 242 240 167 192 173 213 227 233 229 219 180 195 285 288 267 229 209 201 217 239 166 168 146
84 34 161 168 227 242 242 254 246 231 218 170 187 232 191 172 127 90 122 132 126 128 93 61 70 58 47 42 36 33 29 23 13 14 8 4 7 13 18 11 5 11 357 344 340 333 330 336 4 49 115 130 127 135 133 154 166 179 108 54 41 38 44 43 41 44 35 31 26 17 10 344 298 243 244 221 181 145 120 278 266 286 269 256 157 145 95 323 308 296 283 224 217 250 282 32 300
322 301 258 277 307 308 178 244 227 140 243 161 243 205 142 102 232 163 142 141 146 131 87 60 58 59 47 38 31 27 29 24 16 2 13 15 17 17 10 9 9 359 353 352 344 339 327 343 10 25 87 103 120 123 87 59 54 47 53 57 53 53 54 50 50 51 41 37 23 26 24 20 20 29 31 42 36 39 37 12 23 23 35 32 5 6 28 4 350 317 304 305 299 307 307 28 303
37 316 283 237 232 241 228 231 281 215 201 205 225 163 124 152 237 56 130 154 179 128 88 70 64 67 66 58 47 33 32 24 18 19 20 18 15 6 10 7 356 351 356 350 343 336 339 4 22 39 49 55 66 70 72 72 65 60 56 66 63 58 60 65 60 56 51 44 39 35 32 33 34 47 40 42 44 40 43 48 43 40 37 39 36 32 34 33 16 12 12 2 3 345 343 10 0
356 317 301 303 286 256 66 359 54 281 128 211 188 151 185 171 171 65 87 150 168 131 100 86 82 83 70 57 52 39 29 23 25 29 22 17 9 10 11 9 359 351 352 347 345 349 355 359 23 41 55 55 65 69 69 71 71 69 68 63 65 59 60 59 55 50 48 50 51 54 50 46 42 49 54 53 50 58 57 57 58 56 46 45 44 52 56 41 40 31 28 11 17 336 342 360 12
239 139 341 301 288 242 66 214 199 263 106 185 206 251 163 144 111 84 110 156 160 162 114 103 98 74 56 52 54 53 38 33 34 29 19 13 9 11 11 10 5 2 349 353 356 3 346 9 39 41 49 54 53 58 61 61 61 62 61 61 61 63 57 61 59 54 52 50 50 45 51 58 59 51 65 68 66 64 58 52 47 55 57 63 57 64 69 65 62 52 20 20 29 4 359 9 346
279 38 243 289 302 225 111 33 329 225 101 181 233 265 155 140 132 73 40 227 222 213 119 101 78 68 62 54 50 60 54 43 39 32 24 21 13 16 15 12 6 6 1 357 358 349 6 25 38 55 51 58 56 57 58 60 59 58 58 60 60 59 60 60 54 54 53 48 45 49 45 45 54 62 67 75 72 68 63 55 48 47 50 64 62 57 78 77 78 69 62 54 41 39 23 31 4
3 274 218 154 245 139 110 96 358 274 117 185 222 256 286 145 147 64 43 198 214 204 134 94 73 63 64 64 73 74 68 62 49 38 27 21 19 12 13 10 5 5 5 353 349 4 26 19 44 61 63 63 63 60 63 68 67 67 64 57 59 55 57 53 48 46 44 43 43 46 38 46 45 48 62 67 68 64 65 59 55 59 56 60 67 62 62 64 69 73 55 40 54 57 22 38 12
78 230 271 244 200 290 300 109 46 19 330 116 234 291 112 193 145 73 56 159 186 171 141 113 85 83 78 79 78 85 102 79 52 36 24 15 19 10 11 9 9 7 8 6 10 17 30 27 40 60 63 71 70 68 68 65 66 67 65 60 58 57 52 50 45 39 40 40 37 41 31 35 38 43 49 53 64 62 64 64 59 55 49 47 57 59 57 48 57 65 58 38 44 62 46 46 53
219 135 257 300 253 199 249 111 148 28 293 203 147 247 230 78 137 94 87 129 170 166 147 141 134 113 96 95 100 93 80 58 36 19 13 15 11 11 14 11 16 18 18 24 20 36 48 39 38 47 63 59 63 68 67 65 65 66 61 58 54 53 47 45 44 41 40 40 38 37 30 31 34 41 48 52 60 59 61 59 53 46 49 56 57 54 50 39 34 34 57 50 52 68 55 34 12
195 185 224 239 212 234 274 276 75 296 165 272 226 251 248 172 154 163 116 176 196 164 161 160 165 164 145 141 124 100 90 67 38 18 11 11 12 11 10 12 25 28 35 32 37 48 61 52 49 39 52 71 75 76 75 75 74 70 66 62 57 55 48 42 43 46 44 41 37 33 35 40 37 40 45 51 55 54 57 58 58 52 54 55 58 56 47 35 39 42 48 61 53 52 55 37 345
243 194 246 284 264 220 220 233 69 340 275 263 251 260 264 174 194 165 148 166 187 156 157 167 175 169 163 164 147 141 117 90 51 28 22 27 20 6 15 19 39 41 40 39 55 57 64 69 73 66 59 71 81 78 70 70 66 65 66 60 59 52 51 48 44 47 43 42 37 38 36 39 38 38 40 47 51 50 53 51 50 43 42 45 50 50 46 39 32 41 47 49 66 70 43 19 358
86 107 210 251 264 269 102 207 71 339 278 251 258 266 268 264 196 166 154 149 169 177 186 189 186 177 179 170 164 145 125 112 76 64 52 42 32 21 18 34 54 61 46 49 63 61 60 69 76 70 58 55 72 73 66 68 68 70 64 60 65 57 54 54 52 47 47 44 41 44 43 43 40 40 39 44 49 56 57 52 50 48 47 47 48 47 41 36 30 26 41 50 42 47 38 18 7
226 233 235 253 220 266 188 144 87 129 247 275 183 265 264 265 141 139 149 179 208 199 200 199 184 187 175 172 158 156 131 132 143 105 77 59 50 34 46 49 42 67 48 55 63 67 70 71 76 76 70 71 68 74 82 73 63 61 75 66 67 60 55 53 54 47 45 44 42 43 44 42 42 43 38 39 43 44 48 48 45 43 45 51 53 49 42 37 32 29 17 52 50 41 43 20 14
170 245 240 261 256 269 264 188 167 203 170 264 332 268 267 266 129 143 180 194 194 213 243 231 193 186 179 164 151 145 154 146 124 104 88 88 61 49 55 51 52 55 58 59 64 75 74 73 74 78 77 79 73 77 82 82 80 77 84 84 81 80 65 61 61 55 49 50 46 43 42 45 46 46 43 42 43 42 47 49 46 43 43 44 50 47 42 40 33 31 27 19 36 50 50 35 28
222 205 226 239 237 184 262 119 119 170 233 334 18 298 277 262 142 160 161 189 180 183 216 210 253 213 184 166 158 167 157 153 151 139 124 97 80 69 61 58 54 60 66 66 62 73 73 77 84 89 88 86 86 84 87 89 91 92 89 90 87 84 85 74 68 58 49 47 47 43 42 41 44 49 44 46 50 48 48 51 51 49 47 46 50 51 44 40 34 31 29 26 19 45 36 40 33
213 224 232 248 205 224 242 308 164 123 226 315 287 280 274 254 232 182 151 162 167 174 175 198 199 227 154 115 183 206 176 169 152 146 129 113 95 72 63 57 62 71 65 55 51 66 79 87 90 93 90 91 96 100 100 105 105 102 103 102 100 96 84 76 69 56 48 45 44 36 34 37 40 43 43 43 45 47 46 45 49 50 50 46 49 51 48 40 35 33 28 33 28 29 41 38 40
207 217 227 237 235 245 198 89 271 258 249 172 213 285 260 113 241 246 130 170 197 161 201 199 191 190 193 195 192 182 200 204 159 132 112 94 92 92 84 68 63 66 60 42 40 63 85 93 93 93 93 93 95 97 109 115 115 117 120 114 103 91 79 65 61 59 51 47 47 40 37 37 41 44 43 43 42 43 44 42 42 45 45 43 44 50 49 45 36 33 26 28 31 23 31 37 36
231 238 202 228 240 239 205 183 161 248 256 77 296 232 267 152 246 193 171 192 194 162 216 209 197 197 197 198 185 185 178 167 134 108 121 126 113 111 94 77 67 72 65 60 66 74 82 84 86 87 89 89 86 92 95 102 97 91 90 89 92 95 98 82 79 77 75 67 60 52 48 40 38 44 43 43 42 41 44 42 43 45 45 45 41 44 43 40 37 30 24 31 28 23 25 43 33
234 74 180 200 205 204 214 201 209 259 41 100 188 258 269 279 270 114 135 208 217 208 206 208 208 200 196 193 186 182 173 164 153 151 146 130 130 121 113 91 76 78 81 82 81 81 84 88 90 89 89 90 90 98 91 90 98 97 96 92 90 90 91 100 93 83 79 77 71 60 57 49 42 42 43 41 41 39 40 43 41 44 47 43 43 45 42 34 35 34 30 29 31 33 29 34 32
302 46 206 166 191 199 171 198 216 262 323 257 181 170 250 245 231 115 171 258 227 225 203 199 204 197 193 190 183 177 171 165 165 163 160 152 143 130 120 111 101 106 97 98 98 98 97 97 96 97 95 92 91 94 98 91 94 99 100 103 98 91 95 96 94 89 83 77 76 65 62 57 53 47 44 44 41 41 40 42 42 45 45 43 42 44 41 36 34 31 28 30 29 32 34 24 27
115 120 87 82 80 74 166 196 200 183 220 242 216 175 242 264 206 215 148 245 255 229 192 191 193 189 187 184 176 173 167 168 179 171 156 149 147 136 117 124 122 107 101 108 112 112 109 107 104 101 96 96 99 97 95 94 96 101 99 101 104 105 105 103 98 93 88 81 74 68 62 58 52 50 46 42 42 41 40 40 42 44 46 44 45 43 39 38 33 33 32 32 26 32 30 31 31
128 160 106 96 85 98 95 80 171 182 240 239 225 181 214 279 178 214 199 219 221 121 145 176 178 181 185 181 175 173 174 177 178 173 166 159 146 148 159 144 126 121 119 124 118 118 115 110 109 100 98 100 99 100 102 98 94 94 98 100 103 109 109 108 105 93 89 84 78 70 66 61 56 52 48 44 40 38 43 43 43 45 45 44 43 39 35 32 31 31 30 35 38 31 26 23 27
161 158 146 125 93 147 168 137 208 232 254 131 35 212 204 230 214 218 208 79 129 171 177 178 178 181 180 177 175 174 178 179 174 172 174 166 165 169 166 148 145 138 133 129 127 122 115 110 112 105 100 102 103 105 101 95 92 93 96 101 102 105 109 105 100 95 87 84 81 79 77 71 62 58 51 47 38 33 38 40 39 42 42 38 39 37 32 24 27 30 31 31 31 31 27 23 25
220 156 161 188 183 162 211 166 218 212 239 101 75 137 205 238 243 331 3 206 160 204 102 183 175 176 177 175 171 174 178 176 176 179 174 178 177 171 171 159 151 154 149 144 138 130 120 116 118 111 108 110 107 106 100 99 99 99 103 103 101 100 97 97 96 96 90 86 79 74 69 66 58 54 44 43 35 29 33 34 34 33 36 37 35 34 31 25 21 30 31 30 32 26 24 14 23
197 185 180 190 199 204 248 196 301 307 197 49 82 165 254 338 252 242 250 97 71 73 61 354 179 173 173 168 169 174 176 179 182 182 182 182 178 175 171 166 163 157 155 149 145 137 129 123 122 113 115 114 112 108 106 104 101 104 103 104 104 103 100 98 95 92 87 82 80 78 76 74 71 63 54 48 34 33 39 39 39 42 40 39 36 33 29 26 15 26 30 25 22 23 14 7 17
199 207 188 211 197 175 213 186 224 243 79 102 251 166 232 167 201 23 18 19 45 58 42 4 166 165 161 159 161 167 175 186 184 186 186 182 180 176 173 170 166 163 158 153 147 142 133 125 126 123 122 123 120 117 114 109 107 104 103 103 104 106 104 100 95 95 96 96 91 90 82 78 76 69 62 57 41 42 42 43 39 41 39 36 34 29 19 23 12 13 28 20 17 14 358 359 354
153 296 360 304 230 275 262 16 308 78 174 177 178 230 210 207 100 75 68 99 111 109 95 127 163 147 143 155 174 182 185 184 183 187 187 187 182 178 174 175 171 165 162 157 154 150 143 135 132 129 129 131 128 123 118 115 111 109 107 104 101 99 101 103 103 100 97 97 98 94 90 84 86 88 82 77 63 52 45 44 50 44 38 35 30 25 16 14 4 8 17 15 10 7 342 349 346
171 146 208 202 358 121 100 129 72 34 319 254 152 244 234 313 216 114 143 116 159 143 144 163 161 162 165 178 183 185 186 182 181 188 188 184 181 184 185 180 175 170 169 169 165 164 155 145 140 135 132 132 130 125 121 119 117 114 109 108 110 111 110 108 109 111 109 107 105 97 92 91 89 80 83 70 55 50 38 27 32 32 28 25 19 18 10 2 347 356 7 0 3 350 333 336 342
106 215 203 69 228 350 204 248 119 219 250 266 148 214 215 144 241 120 155 178 185 190 176 173 170 170 181 190 188 189 187 183 182 186 188 186 184 185 185 186 182 179 171 167 167 166 160 152 148 141 142 139 137 131 127 126 124 119 120 120 115 112 112 116 119 122 118 114 109 104 106 95 78 79 82 65 58 47 44 34 33 32 26 18 15 8 360 351 338 348 346 344 3 339 329 329 328
237 178 118 167 197 208 184 249 243 194 235 264 200 224 239 196 206 137 202 195 193 196 176 170 182 188 194 192 193 187 177 175 186 192 188 187 187 186 187 186 182 176 173 170 167 168 166 159 153 148 145 144 140 135 131 128 129 126 128 125 125 126 126 122 118 114 113 109 103 99 98 97 99 82 70 64 53 47 44 33 41 22 21 10 6 1 349 345 339 352 349 353 3 349 340 336 340
356 128 185 1 330 232 161 208 319 194 256 155 250 134 239 187 213 173 194 196 191 178 169 196 194 192 192 192 188 186 187 192 190 190 191 186 184 186 187 184 178 176 177 176 170 172 173 163 155 149 141 141 139 138 139 137 135 131 129 132 137 133 127 123 123 125 116 108 105 105 102 97 87 80 73 63 58 49 40 36 27 28 8 7 7 3 357 354 350 5 355 356 353 348 343 337 341
164 187 189 177 215 349 327 334 205 213 240 227 280 260 217 180 193 180 191 192 182 173 186 188 193 198 198 193 186 186 190 188 189 188 183 178 180 187 185 178 175 175 177 177 177 179 173 167 166 159 153 152 150 148 147 143 141 140 144 147 143 137 131 125 123 120 112 105 102 95 89 94 99 83 74 74 68 52 38 30 24 18 13 5 6 2 1 356 356 357 351 347 342 341 338 335 334
186 178 189 184 161 173 186 232 107 223 210 240 177 257 110 166 61 223 198 59 154 181 173 182 195 196 191 191 194 189 187 190 187 181 172 173 180 182 171 165 169 177 183 185 182 178 176 178 173 167 163 163 159 159 156 151 151 152 156 149 143 137 134 129 129 122 108 105 99 98 107 128 121 112 103 83 71 59 31 20 20 12 7 6 358 356 356 351 350 343 339 340 330 332 329 329 328